Location: Newark
(49.8348°N, 24.0280°E)
Time: 13:09:40
(UTC+00:00)

Explorer 7 - Pass Details

Date: 20 January 2020
Orbit: 485 x 679 km, 50.3° (Epoch: 28 February)

Event Time Altitude Azimuth Distance (km) Brightness Sun altitude
Rises 03:10:11 0° 282° (WNW) 2,587 - -28.9°
Reaches altitude 10° 03:12:20 10° 281° (W) 1,722 - -28.5°
Maximum altitude 03:16:13 77° 196° (SSW) 542 - -27.9°
Exits shadow 03:17:46 36° 116° (ESE) 851 8.1 -27.6°
Drops below altitude 10° 03:20:20 10° 110° (ESE) 1,815 10.3 -27.2°
Sets 03:22:38 0° 109° (ESE) 2,743 11.5 -26.8°
